Fort Yukon, AK

12:20 PM AKST on February 25, 2017 (GMT -0900)
Fort Yukon

Weather History for PFYU - March, 2013

Change the Weather History Date:

Tuesday, March 12, 2013

  Actual Average Record
Temperature  
Mean Temperature -6 °F -  
Max Temperature 14 °F 10 °F 24 °F (2005)
Min Temperature -25 °F -10 °F -34 °F (2007)
Degree Days  
Heating Degree Days 70    
Moisture  
Dew Point -15 °F    
Average Humidity 64    
Maximum Humidity 100    
Minimum Humidity 40    
Precipitation  
Precipitation 0.00 in - - ()
Sea Level Pressure  
Sea Level Pressure 30.51 in    
Wind  
Wind Speed 0 mph (NNE)    
Max Wind Speed 6 mph    
Max Gust Speed -    
Visibility 8 miles    
Events      
Averages and records for this station are not official NWS values.
T = Trace of Precipitation, MM = Missing Value Source: NWS Daily Summary

Daily Weather History Graph

Daily Weather History Graph

Search for Another Location

Airport or City:

Trip Planner

Search our weather history database for the weather conditions in past years. The results will help you decide how hot, cold, wet, or windy it might be!

Date:

Astronomy

Mar. 12, 2013 Rise Set
Actual Time 8:10 AM AKDT 7:32 PM AKDT
Civil Twilight 7:18 AM AKDT 8:24 PM AKDT
Nautical Twilight 6:16 AM AKDT 9:26 PM AKDT
Astronomical Twilight 5:07 AM AKDT 10:36 PM AKDT
Moon 7:42 AM AKDT (3/12) 9:53 PM AKDT (3/12)
Length of Visible Light 13h 05m
Length of Day
11h 21m
New Moon, 1% of the Moon is Illuminated
Mar 12
New Moon
Mar 19
First Quarter
Mar 27
Full
Apr 2
Last Quarter
Apr 10
New

Hourly Weather History & Observations

Time (AKDT) Temp. Windchill Dew Point Humidity Pressure Visibility Wind Dir Wind Speed Gust Speed Precip Events Conditions
12:16 AM -14.8 °F - -23.8 °F 64% 30.61 in 3.0 mi Calm Calm - N/A   Clear
12:36 AM -14.8 °F - -20.2 °F 77% 30.61 in 2.5 mi Calm Calm - N/A   Clear
12:56 AM -14.8 °F - -23.8 °F 64% 30.61 in 2.5 mi Calm Calm - N/A   Clear
1:16 AM -16.6 °F - -25.6 °F 64% 30.61 in 4.0 mi Calm Calm - N/A   Clear
1:36 AM -18.4 °F - -25.6 °F 70% 30.61 in 3.0 mi Calm Calm - N/A   Clear
1:56 AM -18.4 °F - -25.6 °F 70% 30.61 in 7.0 mi Calm Calm - N/A   Clear
2:16 AM -18.4 °F - -23.8 °F 76% 30.61 in 5.0 mi Calm Calm - N/A   Clear
2:56 AM -20.2 °F - -27.4 °F 69% 30.61 in 5.0 mi Calm Calm - N/A   Clear
3:36 AM -18.4 °F - -25.6 °F 70% 30.61 in 5.0 mi Calm Calm - N/A   Clear
3:56 AM -20.2 °F - -29.2 °F 63% 30.62 in 7.0 mi Calm Calm - N/A   Clear
5:16 AM -20.2 °F - - N/A% 30.60 in 4.0 mi Calm Calm - N/A   Clear
5:36 AM -23.8 °F - - N/A% 30.59 in 2.5 mi Calm Calm - N/A   Clear
5:56 AM -23.8 °F - - N/A% 30.59 in 2.0 mi Calm Calm - N/A   Clear
6:36 AM -25.6 °F - - N/A% 30.59 in 2.5 mi Calm Calm - N/A   Clear
6:56 AM -23.8 °F - -27.4 °F 83% 30.59 in 10.0 mi Calm Calm - N/A   Clear
7:16 AM -23.8 °F - - N/A% 30.58 in 10.0 mi Calm Calm - N/A   Clear
7:36 AM -25.6 °F - - N/A% 30.58 in 10.0 mi Calm Calm - N/A   Partly Cloudy
7:56 AM -25.6 °F - - N/A% 30.58 in 10.0 mi Calm Calm - N/A   Scattered Clouds
8:16 AM -25.6 °F - - N/A% 30.58 in 9.0 mi Calm Calm - N/A   Scattered Clouds
9:16 AM -22.0 °F - -25.6 °F 83% 30.56 in 6.0 mi Calm Calm - N/A   Scattered Clouds
9:36 AM -20.2 °F - -23.8 °F 83% 30.56 in 3.0 mi Calm Calm - N/A   Scattered Clouds
9:56 AM -18.4 °F - -25.6 °F 70% 30.56 in 3.0 mi Calm Calm - N/A   Scattered Clouds
10:16 AM -16.6 °F - -18.4 °F 92% 30.55 in 5.0 mi Calm Calm - N/A   Scattered Clouds
10:56 AM -11.2 °F - -11.2 °F 100% 30.55 in 9.0 mi Calm Calm - N/A   Partly Cloudy
11:16 AM -9.4 °F - -18.4 °F 65% 30.55 in 10.0 mi Calm Calm - N/A   Partly Cloudy
11:56 AM -5.8 °F - -14.8 °F 65% 30.55 in 10.0 mi Calm Calm - N/A   Partly Cloudy
12:16 PM -4.0 °F - -5.8 °F 92% 30.55 in 10.0 mi Calm Calm - N/A   Partly Cloudy
12:36 PM -0.4 °F - -9.4 °F 66% 30.54 in 10.0 mi Calm Calm - N/A   Partly Cloudy
1:16 PM 1.4 °F - -2.2 °F 85% 30.54 in 10.0 mi Calm Calm - N/A   Partly Cloudy
1:36 PM 5.0 °F - -7.6 °F 56% 30.54 in 10.0 mi Calm Calm - N/A   Partly Cloudy
1:56 PM 6.8 °F - -4.0 °F 61% 30.53 in 10.0 mi Calm Calm - N/A   Partly Cloudy
2:16 PM 6.8 °F - -5.8 °F 56% 30.52 in 10.0 mi Calm Calm - N/A   Partly Cloudy
2:36 PM 8.6 °F - -2.2 °F 62% 30.51 in 10.0 mi Calm Calm - N/A   Clear
2:56 PM 10.4 °F - -0.4 °F 62% 30.50 in 10.0 mi Calm Calm - N/A   Clear
3:16 PM 10.4 °F - -2.2 °F 57% 30.50 in 10.0 mi Calm Calm - N/A   Clear
3:36 PM 12.2 °F - -0.4 °F 57% 30.49 in 10.0 mi Calm Calm - N/A   Clear
4:36 PM 12.2 °F - 1.4 °F 62% 30.47 in 10.0 mi Calm Calm - N/A   Clear
4:56 PM 12.2 °F 6.1 °F -0.4 °F 57% 30.46 in 10.0 mi West 3.5 mph - N/A   Clear
5:16 PM 14.0 °F - -0.4 °F 53% 30.45 in 10.0 mi Calm Calm - N/A   Clear
5:36 PM 14.0 °F - -0.4 °F 53% 30.45 in 10.0 mi Calm Calm - N/A   Clear
5:56 PM 12.2 °F - -2.2 °F 53% 30.44 in 10.0 mi Calm Calm - N/A   Clear
6:16 PM 12.2 °F - -2.2 °F 53% 30.43 in 10.0 mi Calm Calm - N/A   Clear
6:36 PM 12.2 °F - -0.4 °F 57% 30.43 in 10.0 mi Calm Calm - N/A   Clear
6:56 PM 8.6 °F -1.3 °F -11.2 °F 40% 30.42 in 10.0 mi NNE 5.8 mph - N/A   Clear
7:16 PM 6.8 °F -2.0 °F -9.4 °F 48% 30.41 in 10.0 mi NNE 4.6 mph - N/A   Clear
7:36 PM 5.0 °F -2.1 °F -9.4 °F 52% 30.41 in 10.0 mi NE 3.5 mph - N/A   Clear
7:56 PM 3.2 °F -4.2 °F -11.2 °F 51% 30.41 in 10.0 mi NE 3.5 mph - N/A   Clear
8:16 PM 1.4 °F -6.2 °F -11.2 °F 56% 30.41 in 10.0 mi ENE 3.5 mph - N/A   Clear
8:36 PM -0.4 °F - -14.8 °F 51% 30.40 in 10.0 mi Calm Calm - N/A   Clear
8:56 PM -5.8 °F - -16.6 °F 60% 30.40 in 10.0 mi Calm Calm - N/A   Clear
9:56 PM -11.2 °F - -20.2 °F 64% 30.39 in 10.0 mi Calm Calm - N/A   Clear
10:16 PM -11.2 °F - -20.2 °F 64% 30.39 in 10.0 mi Calm Calm - N/A   Clear
10:36 PM -13.0 °F - -20.2 °F 70% 30.38 in 10.0 mi Calm Calm - N/A   Clear
10:56 PM -14.8 °F - -23.8 °F 64% 30.38 in 10.0 mi Calm Calm - N/A   Clear
11:16 PM -16.6 °F - -25.6 °F 64% 30.38 in 10.0 mi Calm Calm - N/A   Clear
11:36 PM -14.8 °F - -20.2 °F 77% 30.38 in 10.0 mi Calm Calm - N/A   Clear
11:56 PM -16.6 °F - -27.4 °F 58% 30.38 in 10.0 mi Calm Calm - N/A   Clear